Location: ???? ??
(36.0534°N, 43.5630°E)
Time: 07:14:17
(UTC+00:00)

YAOGAN 1 - Pass Details

Date: 18 September 2019
Orbit: 619 x 621 km, 98.0° (Epoch: 22 October)

Event Time Altitude Azimuth Distance (km) Brightness Sun altitude
Rises 16:07:47 0° 185° (S) 2,881 5.9 -12.5°
Reaches altitude 10° 16:10:05 10° 193° (SSW) 1,980 5.2 -13.0°
Maximum altitude 16:14:05 37° 262° (W) 963 4.2 -13.8°
Drops below altitude 10° 16:18:07 10° 330° (NNW) 1,993 5.8 -14.6°
Sets 16:20:26 0° 339° (NNW) 2,903 6.5 -15.0°
